| time (UTC) | temp F | wind direction | speed MPH | gust MPH | rain 1hr in | rain 24hr in | rain mn in | humidity % | barometer mb |
| 20260902043040 | 71 | 112 | 0.0 | 0.0 | 0.00 | 0.00 | 0.00 | 47 | 1008.9 |
| 20260902041541 | 71 | 129 | 0.0 | 0.0 | 0.00 | 0.00 | 0.00 | 45 | 1008.9 |
| 20260902040039 | 72 | 123 | 0.0 | 0.0 | 0.00 | 0.00 | 0.00 | 43 | 1008.9 |
| 20260902034551 | 72 | 115 | 0.0 | 0.0 | 0.00 | 0.00 | 0.00 | 41 | 1009.0 |
| 20260902033040 | 72 | 139 | 0.0 | 0.0 | 0.00 | 0.00 | 0.00 | 40 | 1009.0 |
| 20260902031537 | 73 | 158 | 0.0 | 0.0 | 0.00 | 0.00 | 0.00 | 40 | 1009.1 |
| 20260902030036 | 74 | 148 | 0.0 | 2.0 | 0.00 | 0.00 | 0.00 | 40 | 1009.0 |
| 20260902024538 | 75 | 140 | 0.0 | 0.0 | 0.00 | 0.00 | 0.00 | 35 | 1009.1 |
| 20260902023042 | 76 | 144 | 0.0 | 0.0 | 0.00 | 0.00 | 0.00 | 38 | 1009.1 |
| 20260902021536 | 76 | 131 | 0.0 | 0.0 | 0.00 | 0.00 | 0.00 | 35 | 1009.0 |
| 20260902020036 | 76 | 121 | 0.0 | 2.0 | 0.00 | 0.00 | 0.00 | 36 | 1008.9 |
| 20260902014537 | 77 | 146 | 0.0 | 1.0 | 0.00 | 0.00 | 0.00 | 36 | 1008.8 |
| 20260902013033 | 78 | 129 | 0.0 | 2.0 | 0.00 | 0.00 | 0.00 | 35 | 1008.9 |
| 20260902011534 | 80 | 162 | 1.0 | 3.0 | 0.00 | 0.00 | 0.00 | 31 | 1008.8 |
| 20260902010035 | 80 | 131 | 0.0 | 4.0 | 0.00 | 0.00 | 0.00 | 31 | 1008.9 |
| 20260902004531 | 81 | 130 | 0.0 | 2.0 | 0.00 | 0.00 | 0.00 | 32 | 1009.0 |
| 20260902003034 | 81 | 131 | 1.0 | 3.0 | 0.00 | 0.00 | 0.00 | 31 | 1009.0 |
| 20260902001543 | 82 | 127 | 1.0 | 4.0 | 0.00 | 0.00 | 0.00 | 31 | 1009.0 |
| 20260902000037 | 82 | 147 | 2.0 | 4.0 | 0.00 | 0.00 | 0.00 | 28 | 1009.1 |
| 20260901234527 | 81 | 132 | 2.0 | 6.0 | 0.00 | 0.00 | 0.00 | 29 | 1009.1 |
| 20260901233026 | 82 | 144 | 0.0 | 5.0 | 0.00 | 0.00 | 0.00 | 37 | 1009.3 |
| 20260901231524 | 83 | 113 | 2.0 | 8.0 | 0.00 | 0.00 | 0.00 | 28 | 1009.3 |
| 20260901230026 | 85 | 176 | 1.0 | 4.0 | 0.00 | 0.00 | 0.00 | 33 | 1009.4 |
| 20260901224526 | 85 | 122 | 0.0 | 1.0 | 0.00 | 0.00 | 0.00 | 22 | 1009.6 |
| 20260901223016 | 85 | 149 | 0.0 | 1.0 | 0.00 | 0.00 | 0.00 | 23 | 1009.7 |
| 20260901221514 | 84 | 241 | 2.0 | 5.0 | 0.00 | 0.00 | 0.00 | 21 | 1009.9 |
| 20260901220019 | 84 | 106 | 0.0 | 1.0 | 0.00 | 0.00 | 0.00 | 23 | 1010.1 |
| 20260901214509 | 83 | 100 | 0.0 | 1.0 | 0.00 | 0.00 | 0.00 | 25 | 1010.3 |
| 20260901213004 | 82 | 117 | 0.0 | 0.0 | 0.00 | 0.00 | 0.00 | 25 | 1010.5 |
| 20260901211601 | 80 | 98 | 0.0 | 3.0 | 0.00 | 0.00 | 0.00 | 30 | 1010.7 |
| 20260901210058 | 80 | 102 | 2.0 | 5.0 | 0.00 | 0.00 | 0.00 | 27 | 1010.8 |
| 20260901204556 | 80 | 109 | 0.0 | 3.0 | 0.00 | 0.00 | 0.00 | 32 | 1011.0 |
| 20260901203053 | 78 | 93 | 0.0 | 4.0 | 0.00 | 0.00 | 0.00 | 37 | 1011.2 |
| 20260901201557 | 79 | 118 | 0.0 | 1.0 | 0.00 | 0.00 | 0.00 | 29 | 1011.3 |
| 20260901200051 | 77 | 98 | 0.0 | 3.0 | 0.00 | 0.00 | 0.00 | 30 | 1011.5 |
| 20260901194556 | 78 | 95 | 0.0 | 2.0 | 0.00 | 0.00 | 0.00 | 29 | 1011.5 |
| 20260901193051 | 77 | 115 | 0.0 | 2.0 | 0.00 | 0.00 | 0.00 | 33 | 1011.8 |
| 20260901191541 | 76 | 118 | 0.0 | 4.0 | 0.00 | 0.00 | 0.00 | 38 | 1011.9 |
| 20260901190038 | 76 | 119 | 0.0 | 2.0 | 0.00 | 0.00 | 0.00 | 36 | 1012.0 |
| 20260901184540 | 75 | 127 | 1.0 | 4.0 | 0.00 | 0.00 | 0.00 | 36 | 1012.2 |
| 20260901183034 | 74 | 129 | 3.0 | 6.0 | 0.00 | 0.00 | 0.00 | 35 | 1012.4 |
| 20260901181535 | 75 | 128 | 1.0 | 6.0 | 0.00 | 0.00 | 0.00 | 36 | 1012.5 |
| 20260901180028 | 74 | 117 | 1.0 | 5.0 | 0.00 | 0.00 | 0.00 | 37 | 1012.7 |
| 20260901174527 | 73 | 164 | 0.0 | 0.0 | 0.00 | 0.00 | 0.00 | 39 | 1012.7 |
| 20260901173024 | 73 | 147 | 0.0 | 0.0 | 0.00 | 0.00 | 0.00 | 39 | 1012.9 |
| 20260901171521 | 71 | 139 | 0.0 | 1.0 | 0.00 | 0.00 | 0.00 | 39 | 1013.0 |
| 20260901170044 | 70 | 157 | 0.0 | 0.0 | 0.00 | 0.00 | 0.00 | 43 | 1013.1 |
| 20260901164513 | 68 | 165 | 0.0 | 0.0 | 0.00 | 0.00 | 0.00 | 43 | 1013.2 |
| 20260901163021 | 67 | 148 | 0.0 | 0.0 | 0.00 | 0.00 | 0.00 | 44 | 1013.2 |
| 20260901161505 | 66 | 167 | 0.0 | 0.0 | 0.00 | 0.00 | 0.00 | 48 | 1013.4 |
| 20260901160004 | 65 | 168 | 0.0 | 0.0 | 0.00 | 0.00 | 0.00 | 49 | 1013.3 |
| 20260901154609 | 64 | 163 | 0.0 | 0.0 | 0.00 | 0.00 | 0.00 | 50 | 1013.4 |
| 20260901153058 | 63 | 113 | 0.0 | 0.0 | 0.00 | 0.00 | 0.00 | 55 | 1013.5 |
| 20260901151558 | 62 | 161 | 0.0 | 0.0 | 0.00 | 0.00 | 0.00 | 56 | 1013.6 |
| 20260901150105 | 61 | 142 | 0.0 | 0.0 | 0.00 | 0.00 | 0.00 | 55 | 1013.6 |
| 20260901144553 | 61 | 129 | 0.0 | 0.0 | 0.00 | 0.00 | 0.00 | 58 | 1013.8 |
| 20260901143053 | 59 | 179 | 0.0 | 1.0 | 0.00 | 0.00 | 0.00 | 61 | 1013.9 |
| 20260901141552 | 58 | 119 | 0.0 | 3.0 | 0.00 | 0.00 | 0.00 | 62 | 1013.9 |
| 20260901140055 | 58 | 117 | 0.0 | 1.0 | 0.00 | 0.00 | 0.00 | 62 | 1013.7 |
| 20260901134551 | 57 | 142 | 0.0 | 2.0 | 0.00 | 0.00 | 0.00 | 63 | 1013.5 |
| 20260901133057 | 56 | 143 | 1.0 | 3.0 | 0.00 | 0.00 | 0.00 | 66 | 1013.5 |
| 20260901131550 | 56 | 108 | 0.0 | 1.0 | 0.00 | 0.00 | 0.00 | 65 | 1013.3 |
| 20260901130048 | 55 | 96 | 0.0 | 0.0 | 0.00 | 0.00 | 0.00 | 65 | 1013.4 |
| 20260901124546 | 55 | 68 | 0.0 | 0.0 | 0.00 | 0.00 | 0.00 | 65 | 1013.5 |
| 20260901123045 | 56 | 129 | 0.0 | 1.0 | 0.00 | 0.00 | 0.00 | 65 | 1013.4 |
| 20260901121553 | 56 | 112 | 0.0 | 1.0 | 0.00 | 0.00 | 0.00 | 64 | 1013.4 |
| 20260901120041 | 57 | 110 | 0.0 | 0.0 | 0.00 | 0.00 | 0.00 | 64 | 1013.3 |
| 20260901114542 | 57 | 142 | 0.0 | 0.0 | 0.00 | 0.00 | 0.00 | 62 | 1013.4 |
| 20260901113050 | 57 | 131 | 0.0 | 1.0 | 0.00 | 0.00 | 0.00 | 62 | 1013.5 |
| 20260901111543 | 57 | 131 | 0.0 | 1.0 | 0.00 | 0.00 | 0.00 | 64 | 1013.5 |
| 20260901110036 | 56 | 124 | 0.0 | 1.0 | 0.00 | 0.00 | 0.00 | 65 | 1013.5 |
| 20260901104540 | 57 | 128 | 0.0 | 2.0 | 0.00 | 0.00 | 0.00 | 64 | 1013.7 |
| 20260901103033 | 57 | 143 | 0.0 | 0.0 | 0.00 | 0.00 | 0.00 | 63 | 1013.5 |
| 20260901101529 | 58 | 158 | 0.0 | 0.0 | 0.00 | 0.00 | 0.00 | 61 | 1013.8 |
| 20260901100026 | 58 | 115 | 0.0 | 0.0 | 0.00 | 0.00 | 0.00 | 61 | 1013.9 |
| 20260901094531 | 59 | 123 | 0.0 | 1.0 | 0.00 | 0.00 | 0.00 | 58 | 1013.9 |
| 20260901093026 | 59 | 84 | 0.0 | 0.0 | 0.00 | 0.00 | 0.00 | 57 | 1013.8 |
| 20260901091524 | 59 | 141 | 0.0 | 0.0 | 0.00 | 0.00 | 0.00 | 59 | 1013.7 |
| 20260901090020 | 59 | 66 | 0.0 | 0.0 | 0.00 | 0.00 | 0.00 | 57 | 1013.7 |
| 20260901084526 | 61 | 102 | 0.0 | 0.0 | 0.00 | 0.00 | 0.00 | 55 | 1013.8 |
| 20260901083018 | 61 | 127 | 0.0 | 0.0 | 0.00 | 0.00 | 0.00 | 54 | 1013.7 |
| 20260901081513 | 61 | 95 | 0.0 | 0.0 | 0.00 | 0.00 | 0.00 | 53 | 1013.8 |
| 20260901080011 | 62 | 114 | 0.0 | 0.0 | 0.00 | 0.00 | 0.00 | 55 | 1013.9 |
| 20260901074509 | 63 | 136 | 0.0 | 0.0 | 0.00 | 0.00 | 0.00 | 53 | 1014.0 |
| 20260901073009 | 63 | 116 | 0.0 | 0.0 | 0.00 | 0.00 | 0.00 | 52 | 1014.1 |
| 20260901071509 | 62 | 110 | 0.0 | 0.0 | 0.00 | 0.00 | 0.00 | 55 | 1014.2 |
| 20260901070008 | 62 | 165 | 0.0 | 0.0 | 0.00 | 0.00 | 0.00 | 52 | 1014.3 |
| 20260901064507 | 63 | 139 | 0.0 | 0.0 | 0.00 | 0.00 | 0.00 | 52 | 1014.2 |
| 20260901063003 | 62 | 132 | 0.0 | 0.0 | 0.00 | 0.00 | 0.00 | 54 | 1014.2 |
| 20260901061607 | 63 | 139 | 0.0 | 0.0 | 0.00 | 0.00 | 0.00 | 51 | 1014.2 |
| 20260901060057 | 63 | 144 | 0.0 | 0.0 | 0.00 | 0.00 | 0.00 | 51 | 1014.4 |
| 20260901054557 | 63 | 117 | 0.0 | 0.0 | 0.00 | 0.00 | 0.00 | 51 | 1014.3 |
| 20260901053100 | 63 | 132 | 0.0 | 0.0 | 0.00 | 0.00 | 0.00 | 52 | 1014.4 |
| 20260901051615 | 64 | 132 | 0.0 | 0.0 | 0.00 | 0.00 | 0.00 | 49 | 1014.4 |
| 20260901050055 | 64 | 131 | 0.0 | 0.0 | 0.00 | 0.00 | 0.00 | 50 | 1014.5 |
| 20260901044554 | 64 | 160 | 0.0 | 0.0 | 0.00 | 0.00 | 0.00 | 50 | 1014.6 |